Tracking 25378 objects as of 22-Jan-2022
HD Live streaming from Space Station
objects crossing your sky now

STARLINK-2636

Track STARLINK-2636 now!
10-day predictions
STARLINK-2636 is classified as:


NORAD ID: 48357
Int'l Code: 2021-038E
Perigee: 553.3 km
Apogee: 555.5 km
Inclination: 53.1 °
Period: 95.6 minutes
Semi major axis: 6925 km
RCS: Unknown
Launch date: May 4, 2021
Source: United States (US)
Launch site: AIR FORCE EASTERN TEST RANGE (AFETR)
aabbcc
Your satellite tracking list
Your tracking list is empty




NASA's NSSDC Master Catalog

Two Line Element Set (TLE):
1 48357U 21038E   22021.45590607 -.00001675  00000-0 -93610-4 0  9998
2 48357  53.0552 292.3433 0001593  66.6432 293.4725 15.06396385 39707
Source of the keplerian elements: AFSPC